DMSP 5D-2 F11 DEB, 28330

Orbit data source: Space-Track

DMSP 5D-2 F11 DEB, 28330 is space debris in SSO originally from a launch on Thu, 28 Nov 1991 UTC launched from the Air Force Western Test Range (AFWTR). Debris objects in space refer to the collection of defunct objects orbiting the Earth. Examples of debris include non-operational satellites, rocket bodies, and fragments generated from explosions, collisions, or faulty payload assembly.

Loading next visibility...
Identifier
28330, 1991-082AT
Orbit
SSO
Country
Flag of USUS
Related business
Manufacturer
Unknown
Mission
Spacecraft
Bus & Motor
Unknown
Mass
Unknown
Launch date (UTC)
1991-11-28 (35 years ago)
Launch vehicle
Unknown
Launch site
Air Force Western Test Range (AFWTR)
Object type
Payload
Rocket body
Debris
Shape & HBR
Unknown shape, 0.1 m
Radar Cross Section
Medium (>0.1 m² and <1 m²)

Expand to show TLE details & history
Last TLE update: 1 day ago

TLE from 1 day ago
0 DMSP 5D-2 F11 DEB
1 28330U 91082AT  26208.06430568  .00004332  00000-0  13683-2 0  9991
2 28330  98.9324 287.9053 0067536  13.7145 346.5856 14.39469474146082
Epoch: 2026-07-27T01:32Z
TLE epoch observation values (Epoch: 2026-07-27T01:32:36.010Z)
Latitude
-0.00008°
Longitude
-39.99798°
Altitude
716.299 km
Speed
7.522 km/s
True Right ascension
19h 11m 37s
True Declination
0° 00' 00"
Sunlit
Object was in full shadow at epoch
Visualization orbit readout
Latitude
Unknown
Longitude
Unknown
Altitude
Unknown
Speed
Unknown
Apparent Right ascension
Unknown
Apparent Declination
Unknown
Sunlit
N/A
Visualization observer readout
Local Sidereal Time
20:38:39
Azimuth
Unknown
Elevation
Unknown
Doppler factor
Unknown
Orbital elements
Apogee altitude
805.586 km
Perigee altitude
709.205 km
Semi-major axis
7,135.532 km
Eccentricity
0.00675
Inclination
98.9324°
RAAN
287.9053°
Arg. of periapsis
13.7145°
True anomaly
346.40457°
Mean anomaly
346.5856°
Eccentric anomaly
346.49524°
Mean motion
3.60084 °/min
Orbital period
99.98 mins
BSTAR
0.0013683
Loading maneuver chart data...
Computing Atmospheric mass density...

Documentation

Showing up to 5 results
|